NAVACERRADA, MADRID

latitud = 40° 46' 50''N | longitud = 004° 00' 37''W
1894 metros sobre el nivel del mar | datos mensuales

Fecha, hora, temperatura, viento dirección y velocidad, humedad y presión.

  • 21-01-2018 02:00:00 | 0.80°C | Norte |23.00 km/h | 100.00% | 819.30 hPa
  • 21-01-2018 01:00:00 | 0.80°C | Norte |21.00 km/h | 100.00% | 820.10 hPa
  • 21-01-2018 00:00:00 | 0.80°C | Norte |21.00 km/h | 100.00% | 820.20 hPa
  • 20-01-2018 23:00:00 | 0.80°C | Norte |18.00 km/h | 100.00% | 820.00 hPa
  • 20-01-2018 22:00:00 | 0.70°C | Norte |16.00 km/h | 100.00% | 819.80 hPa
  • 20-01-2018 21:00:00 | 0.70°C | Norte |16.00 km/h | 100.00% | 819.70 hPa
  • 20-01-2018 20:00:00 | 1.00°C | Norte |14.00 km/h | 98.00% | 819.60 hPa
  • 20-01-2018 19:00:00 | 1.30°C | Norte |12.00 km/h | 93.00% | 819.30 hPa
  • 20-01-2018 18:00:00 | 2.10°C | Norte |11.00 km/h | 86.00% | 818.90 hPa
  • 20-01-2018 17:00:00 | 3.70°C | Noroeste |12.00 km/h | 72.00% | 818.40 hPa
  • 20-01-2018 16:00:00 | 3.60°C | Noroeste |8.00 km/h | 71.00% | 817.90 hPa
  • 20-01-2018 15:00:00 | 1.40°C | Norte |9.00 km/h | 77.00% | 817.80 hPa
  • 20-01-2018 14:00:00 | 0.50°C | Noroeste |9.00 km/h | 71.00% | 818.20 hPa
  • 20-01-2018 13:00:00 | 0.00°C | Norte |14.00 km/h | 58.00% | 818.60 hPa
  • 20-01-2018 12:00:00 | -0.60°C | Norte |15.00 km/h | 56.00% | 818.70 hPa
  • 20-01-2018 11:00:00 | -0.40°C | Norte |15.00 km/h | 64.00% | 818.50 hPa
  • 20-01-2018 10:00:00 | -0.60°C | Norte |16.00 km/h | 68.00% | 817.90 hPa
  • 20-01-2018 09:00:00 | -1.60°C | Norte |12.00 km/h | 78.00% | 817.40 hPa
  • 20-01-2018 08:00:00 | -1.10°C | Norte |16.00 km/h | 84.00% | 817.20 hPa
  • 20-01-2018 07:00:00 | -1.20°C | Noroeste |12.00 km/h | 94.00% | 816.80 hPa
  • 20-01-2018 06:00:00 | -1.30°C | Norte |14.00 km/h | 100.00% | 816.80 hPa
  • 20-01-2018 05:00:00 | -0.60°C | Norte |15.00 km/h | 100.00% | 816.70 hPa
  • 20-01-2018 04:00:00 | -0.10°C | Noroeste |11.00 km/h | 100.00% | 816.90 hPa
  • 20-01-2018 03:00:00 | 0.10°C | Noroeste |14.00 km/h | 100.00% | 817.00 hPa